Holdrege, NE

2:24 PM CDT on May 25, 2018 (GMT -0500)
Brewster

Weather History for KHDE - March, 2012

Change the Weather History Date:

Thursday, March 29, 2012

  Actual Average Record
Temperature  
Mean Temperature 54 °F -  
Max Temperature 66 °F 53 °F 88 °F (1986)
Min Temperature 43 °F 31 °F 12 °F (1969)
Degree Days  
Heating Degree Days 10    
Growing Degree Days 4 (Base 50)    
Moisture  
Dew Point 52 °F    
Average Humidity 85    
Maximum Humidity 97    
Minimum Humidity 61    
Precipitation  
Precipitation 0.01 in - - ()
Sea Level Pressure  
Sea Level Pressure 29.78 in    
Wind  
Wind Speed 8 mph (NE)    
Max Wind Speed 13 mph    
Max Gust Speed -    
Visibility 6 miles    
Events Fog , Rain    
Averages and records for this station are not official NWS values.
T = Trace of Precipitation, MM = Missing Value Source: NWS Daily Summary

Daily Weather History Graph

Daily Weather History Graph

Search for Another Location

Airport or City:

Astronomy

Mar. 29, 2012 Rise Set
Actual Time 7:25 AM CDT 7:59 PM CDT
Civil Twilight 6:57 AM CDT 8:26 PM CDT
Nautical Twilight 6:25 AM CDT 8:59 PM CDT
Astronomical Twilight 5:52 AM CDT 9:32 PM CDT
Moon 11:34 AM CDT (3/29) 1:52 AM CDT (3/29)
Length of Visible Light 13h 29m
Length of Day
12h 34m
Waxing Crescent, 39% of the Moon is Illuminated
Mar 29
Waxing Crescent
Mar 30
First Quarter
Apr 6
Full
Apr 13
Last Quarter
Apr 21
New

Hourly Weather History & Observations

Time (CDT) Temp. Windchill Dew Point Humidity Pressure Visibility Wind Dir Wind Speed Gust Speed Precip Events Conditions
12:15 AM 55.2 °F - 43.9 °F 66% 29.85 in 10.0 mi East 10.4 mph - N/A   Clear
12:35 AM 56.5 °F - 43.3 °F 61% 29.84 in 10.0 mi East 10.4 mph - N/A   Clear
12:55 AM 55.9 °F - 42.8 °F 61% 29.84 in 10.0 mi East 9.2 mph - N/A   Clear
1:15 AM 54.9 °F - 42.8 °F 64% 29.83 in 10.0 mi East 9.2 mph - N/A   Clear
1:35 AM 53.4 °F - 42.8 °F 67% 29.83 in 10.0 mi East 10.4 mph - N/A   Clear
1:55 AM 52.0 °F - 42.8 °F 71% 29.83 in 10.0 mi East 10.4 mph - N/A   Clear
2:15 AM 50.4 °F - 42.8 °F 75% 29.82 in 10.0 mi ESE 9.2 mph - N/A   Clear
2:55 AM 49.3 °F - 42.4 °F 77% 29.82 in 10.0 mi SE 4.6 mph - N/A   Clear
3:15 AM 48.6 °F - 42.8 °F 80% 29.81 in 10.0 mi SSE 4.6 mph - N/A   Clear
3:35 AM 48.7 °F - 43.3 °F 82% 29.81 in 10.0 mi SSE 8.1 mph - N/A   Clear
3:55 AM 48.9 °F - 45.7 °F 89% 29.80 in 10.0 mi SSE 5.8 mph - N/A   Clear
4:35 AM 45.9 °F - 43.3 °F 91% 29.78 in 7.0 mi Calm Calm - N/A   Clear
4:55 AM 46.4 °F 44.3 °F 44.6 °F 93% 29.77 in 7.0 mi East 4.6 mph - N/A   Clear
5:15 AM 44.6 °F - 42.4 °F 92% 29.76 in 5.0 mi Calm Calm - N/A   Clear
5:35 AM 45.9 °F 43.6 °F 44.2 °F 94% 29.76 in 4.0 mi East 4.6 mph - N/A   Clear
5:55 AM 45.0 °F 43.5 °F 43.5 °F 95% 29.76 in 4.0 mi East 3.5 mph - N/A   Clear
6:15 AM 43.7 °F 40.3 °F 42.1 °F 94% 29.76 in 1.5 mi ENE 5.8 mph - N/A   Scattered Clouds
6:35 AM 46.8 °F - 45.5 °F 95% 29.77 in 0.2 mi East 8.1 mph - N/A Fog Fog
6:55 AM 48.7 °F - 47.7 °F 96% 29.76 in 0.2 mi East 8.1 mph - N/A Rain Light Rain
7:15 AM 49.1 °F - 48.0 °F 96% 29.76 in 0.2 mi East 4.6 mph - N/A Rain Light Rain
7:35 AM 50.5 °F - 49.3 °F 95% 29.76 in 0.5 mi East 6.9 mph - N/A Fog Fog
7:55 AM 50.9 °F - 50.0 °F 97% 29.76 in 0.2 mi ENE 6.9 mph - N/A   Drizzle
8:15 AM 52.2 °F - 51.1 °F 96% 29.75 in 0.2 mi ENE 5.8 mph - N/A Rain Rain
8:35 AM 53.6 °F - 52.7 °F 97% 29.76 in 0.2 mi East 8.1 mph - N/A Rain Rain
8:55 AM 55.2 °F - 54.1 °F 96% 29.76 in 0.2 mi East 9.2 mph - N/A Rain Rain
9:15 AM 55.4 °F - 54.1 °F 96% 29.77 in 0.2 mi East 10.4 mph - N/A Rain Rain
9:35 AM 55.4 °F - 54.5 °F 97% 29.76 in 0.2 mi East 9.2 mph - N/A Rain Rain
10:35 AM 57.4 °F - 56.5 °F 97% 29.76 in 0.2 mi East 5.8 mph - N/A Fog Fog
10:55 AM 58.1 °F - 57.2 °F 97% 29.76 in 0.5 mi East 5.8 mph - N/A Fog Fog
11:15 AM 58.3 °F - 57.4 °F 97% 29.77 in 0.5 mi NE 3.5 mph - N/A Fog Fog
11:35 AM 58.8 °F - 57.6 °F 96% 29.77 in 0.8 mi NE 4.6 mph - N/A   Overcast
11:55 AM 59.0 °F - 57.7 °F 96% 29.77 in 1.0 mi North 4.6 mph - N/A   Overcast
12:15 PM 59.0 °F - 57.7 °F 96% 29.77 in 1.2 mi North 8.1 mph - N/A   Overcast
12:35 PM 57.9 °F - 56.8 °F 96% 29.77 in 1.2 mi NNW 10.4 mph - 0.01 in   Light Drizzle
12:55 PM 58.6 °F - 57.6 °F 96% 29.77 in 1.5 mi North 9.2 mph - 0.01 in   Overcast
1:15 PM 57.7 °F - 56.7 °F 96% 29.77 in 1.8 mi North 10.4 mph - N/A   Overcast
1:35 PM 58.1 °F - 56.8 °F 96% 29.77 in 2.5 mi North 11.5 mph - N/A   Overcast
1:55 PM 58.3 °F - 57.2 °F 96% 29.77 in 5.0 mi North 10.4 mph - N/A Rain Light Rain
2:15 PM 59.5 °F - 58.3 °F 96% 29.77 in 10.0 mi NNE 11.5 mph - N/A   Overcast
2:35 PM 59.7 °F - 57.9 °F 94% 29.76 in 7.0 mi NNE 11.5 mph - N/A   Overcast
2:55 PM 59.9 °F - 57.9 °F 93% 29.76 in 7.0 mi NNE 12.7 mph - N/A   Overcast
3:15 PM 61.0 °F - 58.6 °F 92% 29.76 in 10.0 mi NNE 11.5 mph - N/A   Overcast
3:35 PM 61.0 °F - 58.3 °F 91% 29.76 in 7.0 mi North 10.4 mph - N/A   Overcast
3:55 PM 60.8 °F - 58.1 °F 91% 29.76 in 7.0 mi North 9.2 mph - N/A   Overcast
4:15 PM 61.9 °F - 59.0 °F 90% 29.76 in 7.0 mi NNE 6.9 mph - N/A   Overcast
4:35 PM 64.0 °F - 59.5 °F 85% 29.74 in 10.0 mi NE 8.1 mph - N/A   Scattered Clouds
4:55 PM 63.9 °F - 58.8 °F 84% 29.75 in 10.0 mi North 4.6 mph - N/A   Mostly Cloudy
5:15 PM 65.5 °F - 59.2 °F 80% 29.75 in 10.0 mi NW 3.5 mph - N/A   Mostly Cloudy
5:35 PM 66.4 °F - 59.0 °F 77% 29.76 in 10.0 mi WNW 4.6 mph - N/A   Scattered Clouds
5:55 PM 66.0 °F - 58.6 °F 77% 29.76 in 10.0 mi Calm Calm - N/A   Scattered Clouds
6:15 PM 66.7 °F - 59.0 °F 76% 29.76 in 10.0 mi NW 3.5 mph - N/A   Clear
6:35 PM 66.2 °F - 58.8 °F 77% 29.76 in 10.0 mi NNW 3.5 mph - N/A   Scattered Clouds
6:55 PM 66.9 °F - 58.8 °F 75% 29.76 in 10.0 mi NW 3.5 mph - N/A   Mostly Cloudy
7:15 PM 65.5 °F - 58.1 °F 77% 29.76 in 10.0 mi NW 4.6 mph - N/A   Scattered Clouds
7:35 PM 65.3 °F - 55.0 °F 69% 29.77 in 10.0 mi NNW 8.1 mph - N/A   Clear
7:55 PM 63.1 °F - 52.7 °F 69% 29.77 in 10.0 mi NNW 6.9 mph - N/A   Clear
8:15 PM 61.2 °F - 50.7 °F 69% 29.77 in 10.0 mi NNW 8.1 mph - N/A   Clear
8:35 PM 59.4 °F - 49.5 °F 70% 29.78 in 10.0 mi NNW 8.1 mph - N/A   Clear
8:55 PM 57.6 °F - 48.2 °F 71% 29.79 in 10.0 mi NW 8.1 mph - N/A   Clear
9:15 PM 55.9 °F - 46.9 °F 72% 29.79 in 10.0 mi NW 8.1 mph - N/A   Clear
9:35 PM 55.4 °F - 46.4 °F 72% 29.80 in 10.0 mi NW 6.9 mph - N/A   Clear
9:55 PM 54.0 °F - 45.5 °F 73% 29.81 in 10.0 mi NNW 6.9 mph - N/A   Clear
10:15 PM 52.7 °F - 44.6 °F 74% 29.81 in 10.0 mi NNW 5.8 mph - N/A   Clear
10:35 PM 52.0 °F - 44.6 °F 76% 29.81 in 10.0 mi NNW 8.1 mph - N/A   Clear
10:55 PM 53.1 °F - 43.3 °F 70% 29.81 in 10.0 mi NNW 10.4 mph - N/A   Clear
11:15 PM 53.1 °F - 43.0 °F 69% 29.81 in 10.0 mi NNW 6.9 mph - N/A   Clear
11:35 PM 52.2 °F - 41.9 °F 68% 29.81 in 10.0 mi NNW 8.1 mph - N/A   Clear
11:55 PM 52.5 °F - 41.5 °F 66% 29.81 in 10.0 mi North 6.9 mph - N/A   Clear